TIME,DELAY(SENSOR),PRES,OXYGEN,RAWTEMP,T(OPTODE),TCPHASE,FLUOR,BETA(BETA700),BETA(BETA412),BETA(BETA440),CDOM,C(CSC),ED(ED411.90),ED(ED443.80),ED(ED489.40),ED(ED554.70),LU(LU412.20),LU(LU443.80),LU(LU489.40),LU(LU555.00),COMP,TILTX,TILTY,CHECK
1374445322,5809,852.8499755859375000,139.8816986083984400,463.8138122558594000,8.6479673385620120,41.6500892639160160,59,242,70,69,74,9820,2146959680,2147515392,2147293677,2147506322,2147085897,2146922633,2147708114,2147123446,1807,-1,8,238
1374448919,5803,949.2199707031250000,167.0036926269531200,517.3248291015625000,6.9909849166870120,40.4184494018554700,58,247,70,70,74,9815,2146960045,2147517961,2147297892,2147515922,2147087661,2146919021,2147720429,2147121353,2564,-1,8,23586
1374452519,5803,958.9699707031250000,173.8038940429687500,529.5405273437500000,6.6100139617919920,40.1480712890625000,59,249,71,69,72,9813,2146961024,2147516818,2147301705,2147518564,2147089773,2146916736,2147721069,2147122203,3557,-1,8,60879
1374456119,5807,986.2399902343750000,180.3197021484375000,538.2880859375000000,6.3365230560302730,39.8535003662109400,59,247,70,70,74,9816,2146957302,2147517577,2147301147,2147521270,2147088027,2146912832,2147718445,2147122596,2794,-1,8,59540
1374459719,5805,991.4699707031250000,201.3943939208984400,538.6010742187500000,6.3267288208007810,38.4973983764648440,57,247,71,68,74,9814,2146960685,2147519789,2147301741,2147521974,2147086518,2146916900,2147726518,2147120091,3569,-1,8,63160
1374463319,5807,995.2600097656250000,192.4969940185547000,538.6749877929688000,6.3244128227233890,39.0569190979003900,58,246,71,69,74,9814,2146963373,2147517248,2147302052,2147520009,2147089371,2146918930,2147722669,2147118729,249,0,8,49690
1374466919,5803,996.4500122070312000,197.0724945068359400,539.0659790039062000,6.3121762275695800,38.7736396789550800,58,250,71,71,73,9814,2146961371,2147520877,2147302354,2147523337,2147088265,2146918793,2147719515,2147121389,3110,-1,8,11337
1374470519,5805,996.9199829101562000,208.7301025390625000,540.2542724609375000,6.2749729156494140,38.0856895446777340,58,248,70,69,74,9814,2146961929,2147520082,2147300827,2147519296,2147085577,2146915483,2147718592,2147120832,3420,0,8,55463
1374474119,5804,998.1300048828125000,196.2283020019531200,540.9777221679688000,6.2523169517517090,38.8619995117187500,58,246,71,68,74,9810,2146963492,2147519753,2147303844,2147520512,2147088438,2146917184,2147721526,2147120512,3548,-1,8,59823
1374477719,5804,996.4500122070312000,196.3377075195312500,541.0916748046875000,6.2487487792968750,38.8572006225585940,59,248,70,70,74,9808,2146960868,2147519012,2147299254,2147520329,2147086272,2146915081,2147721618,2147119515,2880,-1,8,21981
1374481319,5804,996.2299804687500000,175.6188964843750000,541.8104248046875000,6.2262377738952640,40.2390098571777340,58,248,70,68,73,9808,2146961408,2147518400,2147302226,2147520905,2147087670,2146910326,2147727104,2147121545,3427,-1,8,37345
1374484919,5809,1004.2800292968750000,207.4279022216797000,540.7277221679688000,6.2601470947265625,38.1719894409179700,59,252,71,68,74,9808,2146961188,2147523593,2147304466,2147522733,2147086363,2146916388,2147722422,2147120676,164,-1,8,45889
1374488519,5803,1004.7299804687500000,188.9479064941406200,539.5291748046875000,6.2976760864257810,39.3009185791015600,58,252,70,68,73,9807,2146960969,2147518610,2147305243,2147521938,2147086198,2146916882,2147723858,2147121947,3333,-1,8,3922
1374492119,5807,1002.7899780273438000,198.3211059570312500,540.6196289062500000,6.2635331153869630,38.7248687744140600,59,252,71,68,74,9796,2146960832,2147517988,2147301659,2147524598,2147087753,2146914806,2147727597,2147114971,3575,-1,8,60083
1374495719,5808,1000.2700195312500000,191.5370941162109400,541.9265747070312000,6.2225990295410160,39.1769714355468750,59,252,71,68,74,9807,2146963830,2147520969,2147305453,2147523017,2147086674,2146915227,2147720475,2147122066,50,-1,8,1561
1374499319,5806,1000.3400268554688000,198.3889007568359400,542.1821289062500000,6.2145938873291020,38.7483100891113300,59,253,71,68,74,9806,2146958372,2147517961,2147304667,2147523318,2147086784,2146912630,2147719378,2147119643,324,-1,8,54829
1374502919,5804,1000.5499877929688000,181.4154052734375000,542.9973754882812000,6.1890511512756350,39.8638305664062500,59,255,71,67,73,9807,2146959835,2147518061,2147302628,2147519168,2147085540,2146916635,2147721984,2147121636,3548,-1,8,28761
1374506519,5806,1001.1699829101562000,217.8125000000000000,542.4140014648438000,6.2073287963867190,37.5991706848144500,58,257,70,69,73,9806,2146958765,2147517778,2147301888,2147521572,2147085284,2146912676,2147723693,2147121462,3164,-1,8,63513
1374510119,5806,1008.0900268554688000,208.6654968261718800,540.8078002929688000,6.2576389312744140,38.1005706787109400,59,256,71,70,73,9802,2146962532,2147516251,2147300443,2147520941,2147085165,2146915712,2147724571,2147121801,2927,-1,8,18479
1374513719,5808,1010.2199707031250000,196.1710968017578000,539.9188232421875000,6.2854771614074710,38.8464088439941400,58,256,71,69,74,9808,2146960795,2147515675,2147303250,2147518811,2147089554,2146917056,2147720009,2147122514,181,-1,8,24339
1374517319,5809,1011.2000122070312000,188.1067047119140600,540.1464233398438000,6.2783508300781250,39.3666496276855500,58,257,72,70,74,9800,2146959497,2147518582,2147301193,2147520804,2147087725,2146912704,2147723730,2147122066,213,-1,8,35942
1374520919,5806,1011.5200195312500000,189.2005004882812500,539.5814208984375000,6.2960400581359860,39.2856292724609400,59,257,71,69,73,9802,2146961453,2147517184,2147301842,2147520621,2147083913,2146918080,2147723035,2147119515,3370,-1,8,25640
1374524519,5806,1011.1900024414062000,190.0355072021484400,540.0875854492188000,6.2801909446716310,39.2403488159179700,58,258,71,69,73,9801,2146962925,2147517659,2147301193,2147522285,2147086537,2146917284,2147720841,2147118912,908,-1,8,11484
1374528119,5806,1007.2000122070312000,216.1849975585937500,540.4603881835938000,6.2685170173645020,37.6564712524414060,58,258,69,69,74,9803,2146962797,2147518637,2147299766,2147517942,2147086692,2146914468,2147718710,2147118921,2927,-1,8,35290
1374531719,5806,1009.8099975585938000,219.1199951171875000,540.5166015625000000,6.2667598724365230,37.4909400939941400,59,258,70,69,73,9801,2146962112,2147519533,2147302555,2147522084,2147086363,2146919899,2147723145,2147121380,3289,-1,8,34944
1374535319,5806,1014.7800292968750000,221.7689971923828000,539.8397827148438000,6.2879509925842285,37.3304786682128900,58,260,70,69,73,9801,2146961929,2147516873,2147304758,2147521344,2147088923,2146914194,2147722825,2147118436,2993,-1,8,1421
1374538919,5805,1015.7500000000000000,214.1056976318359400,540.5982055664062000,6.2642040252685550,37.7787208557128900,59,257,71,69,74,9799,2146960045,2147520365,2147300672,2147518994,2147088347,2146910509,2147724242,2147119497,3260,-1,8,3024
1374542519,5806,1009.8499755859375000,208.3674926757812500,540.4821777343750000,6.2678341865539550,38.1117401123046900,59,258,71,69,74,9797,2146957476,2147515922,2147300864,2147523245,2147084562,2146916928,2147719140,2147121069,3540,-1,8,27074
1374546119,5804,1008.4099731445312000,207.8845977783203000,541.5645751953125000,6.2339382171630860,38.1599998474121100,58,260,71,69,73,9795,2146962907,2147516635,2147304768,2147520923,2147086601,2146917110,2147723108,2147121718,217,-1,8,33435
1374549719,5806,1007.3699951171875000,215.7322998046875000,543.0125732421875000,6.1885719299316410,37.7286605834960940,58,258,70,70,72,9795,2146961517,2147522313,2147302400,2147519698,2147084205,2146917293,2147725321,2147119917,3513,-1,8,5875
1374553319,5809,1012.2199707031250000,223.4364013671875000,541.9528808593750000,6.2217731475830080,37.2760696411132800,59,259,70,68,72,9796,2146960694,2147520274,2147302144,2147522258,2147085266,2146916717,2147725796,2147121846,821,-1,8,8179
1374556919,5806,1011.7000122070312000,204.5915069580078000,541.6096191406250000,6.2325267791748050,38.3583717346191400,59,259,70,69,73,9795,2146964141,2147515949,2147299538,2147519442,2147084708,2146908589,2147721782,2147122843,150,-1,8,19136
1374560519,5807,1017.4299926757812000,200.0260009765625000,541.3867797851562000,6.2395057678222660,38.6325302124023440,60,262,71,70,72,9798,2146962368,2147521078,2147304649,2147519780,2147083986,2146912064,2147726281,2147115629,691,0,8,64521
1374564119,5804,1018.6400146484375000,219.3135070800781200,540.1917724609375000,6.2769279479980470,37.4739418029785160,59,263,70,70,73,9795,2146959469,2147518244,2147301677,2147520777,2147086884,2146916260,2147723602,2147120402,433,-1,8,28811
1374567719,5803,1018.2000122070312000,219.7120971679687500,539.5031738281250000,6.2984890937805180,37.4399909973144500,58,262,70,69,74,9794,2146962139,2147518692,2147300662,2147522788,2147087360,2146913088,2147720521,2147117750,689,-1,8,12899
1374571319,5804,1018.8800048828125000,220.6152954101562500,539.3176269531250000,6.3042979240417480,37.3859786987304700,59,265,70,70,74,9795,2146961664,2147517970,2147301467,2147520969,2147085129,2146914029,2147721709,2147119616,778,-1,8,31282
1374574919,5807,1015.8200073242188000,221.1062011718750000,539.7651977539062000,6.2902870178222660,37.3660202026367200,59,264,71,68,72,9790,2146960667,2147520045,2147299913,2147523565,2147086290,2146915456,2147722194,2147120987,1334,-1,8,21121
1374578519,5806,1022.7100219726562000,217.6618957519531200,539.8740844726562000,6.2868771553039550,37.5618095397949200,60,266,72,69,73,9794,2146963529,2147513170,2147298733,2147518006,2147088100,2146914267,2147718665,2147119917,534,-1,8,19747
1374582119,5803,1018.2399902343750000,205.9541015625000000,539.8577880859375000,6.2873859405517580,38.2442588806152340,58,265,70,71,73,9789,2146958884,2147518262,2147300891,2147520347,2147088923,2146911689,2147724626,2147121389,3365,-1,8,9044
1374585719,5810,1021.5399780273438000,212.3934936523437500,539.9788208007812000,6.2835979461669920,37.8660011291503900,59,265,70,69,73,9772,2146960658,2147519954,2147302436,2147519405,2147086838,2146912987,2147720594,2147117568,14,0,8,54429
1374588055,5800,1018.8300170898438000,215.1244964599609400,539.9470825195312000,6.2845897674560550,37.7077598571777340,59,265,70,69,74,9785,2146962505,2147519314,2147302820,2147519890,2147084699,2146917531,2147726765,2147119259,3527,-1,8,25959
